Regional Weather Roundup
Issued by NWS Albany, NY

Home | Current Version | Previous Version | Text Only | Print | Product List | Glossary On
Versions: 1 2 3 4 5 6 7 8 9 10 11 12 13 14 15 16 17 18 19 20 21 22 23 24 25 26 27 28
000
ASUS41 KALY 190010
RWRALY

NEW YORK STATE HOURLY WEATHER ROUNDUP
NATIONAL WEATHER SERVICE ALBANY NY
700 PM EST WED JAN 18 2017

NOTE: "FAIR" INDICATES FEW OR NO CLOUDS BELOW 12,000 FEET WITH NO
SIGNIFICANT WEATHER AND/OR NO OBSTRUCTIONS TO VISIBILITY.

NYZ032-033-038>043-046>054-057>066-NYZ062>081-082-084-190100-
EAST


CITY           SKY/WX    TMP DP  RH WIND       PRES   REMARKS
ALBANY         DRZL/FOG  35  33  92 CALM      30.04S VSB 1
GLENS FALLS    LGT RAIN  35  32  88 S5        30.02R FOG     WCI  31
POUGHKEEPSIE   CLOUDY    36  36 100 CALM      30.04R FOG
NEWBURGH       CLOUDY    37  37 100 MISG      30.05R
MONTGOMERY     CLOUDY    37  35  92 CALM      30.03R
WHITE PLAINS   CLOUDY    39  36  89 NW8       30.02R WCI  33
ISLIP          CLOUDY    39  37  92 N10       30.02R WCI  32
NEW YORK CITY  CLOUDY    42  37  82 N9        30.04R
CENTRAL PARK   CLOUDY    40  37  89 N8        30.06R WCI  34
$$

NYZ005>009-017-018-044>046-055-056-190100-
CENTRAL


CITY           SKY/WX    TMP DP  RH WIND       PRES   REMARKS
FULTON         MIX PCPN  36  35  96 W5        30.01R FOG     WCI  32
SYRACUSE       DRIZZLE   36  36 100 SW6       30.00F FOG     WCI  31
ROME           CLOUDY    35  35 100 W5        30.02F FOG     WCI  31
ELMIRA         CLOUDY    38  34  85 SW5       30.01F WCI  34
BINGHAMTON     FOG       34  34 100 CALM      29.98F VSB 3/4
MONTICELLO     MOCLDY    34  32  93 CALM      30.01S
$$

NYZ026>034-041>043-087-190100-
NORTH


CITY           SKY/WX    TMP DP  RH WIND       PRES   REMARKS
WATERTOWN      CLOUDY    34  34 100 SW9       30.00R FOG     WCI  27
FORT DRUM      NOT AVBL
OGDENSBURG     CLOUDY    33  32  99 S5        29.97S FOG     WCI  28
MASSENA        CLOUDY    32  31  96 W5        29.99R FOG     WCI  27
SARANAC LAKE   CLOUDY    33  31  92 SW7       29.89S FOG     WCI  27
PLATTSBURGH    CLOUDY    36  33  89 SE9       29.94F WCI  29
$$

NYZ001>004-010>016-019>021-085-190100-
WEST


CITY           SKY/WX    TMP DP  RH WIND       PRES   REMARKS
NIAGARA FALLS  CLOUDY    37  33  85 SW12      30.00F WCI  29
BUFFALO        DRZL/FOG  35  34  96 SW13      30.01F VSB 1   WCI  26
DUNKIRK        CLOUDY    35  34  96 SW14      30.05F FOG     WCI  26
JAMESTOWN      CLOUDY    34  30  86 W13       30.01F WCI  25
WELLSVILLE     CLOUDY    35  33  92 SW5       30.00F WCI  31
ROCHESTER      CLOUDY    38  35  89 W7        30.01F WCI  33
PENN YAN       CLOUDY    37  32  82 W3        30.01F
$$

             KEY
       WCI = WIND CHILL INDEX
       VSB = VISIBILITY
       HX  = HEAT INDEX
$$




USA.gov is the U.S. government's official web portal to all federal, state and local government web resources and services.